| time (UTC) | temp F | wind direction | speed knots | gust knots | rain 1hr in | rain 24hr in | rain mn in | humidity % | barometer mb |
| 20260504050749 | 44 | 89 | 0.0 | 0.0 | 0.00 | 0.00 | 0.00 | 69 | 956.8 |
| 20260504050247 | 44 | 89 | 0.0 | 0.0 | 0.00 | 0.00 | 0.00 | 69 | 956.8 |
| 20260504045744 | 44 | 89 | 0.0 | 0.0 | 0.00 | 0.00 | 0.00 | 69 | 956.7 |
| 20260504045238 | 44 | 93 | 0.0 | 0.0 | 0.00 | 0.00 | 0.00 | 71 | 956.9 |
| 20260504044736 | 44 | 94 | 0.0 | 0.0 | 0.00 | 0.00 | 0.00 | 71 | 956.9 |
| 20260504044234 | 44 | 95 | 0.0 | 0.0 | 0.00 | 0.00 | 0.00 | 70 | 956.7 |
| 20260504043730 | 44 | 95 | 0.0 | 0.0 | 0.00 | 0.00 | 0.00 | 68 | 956.6 |
| 20260504043227 | 44 | 95 | 0.0 | 0.0 | 0.00 | 0.00 | 0.00 | 66 | 956.6 |
| 20260504042725 | 44 | 95 | 0.0 | 0.0 | 0.00 | 0.00 | 0.00 | 68 | 956.4 |
| 20260504042221 | 44 | 95 | 0.0 | 0.0 | 0.00 | 0.00 | 0.00 | 68 | 956.6 |
| 20260504041718 | 44 | 96 | 0.0 | 0.0 | 0.00 | 0.00 | 0.00 | 71 | 956.4 |
| 20260504041214 | 44 | 95 | 0.0 | 0.0 | 0.00 | 0.00 | 0.00 | 67 | 956.6 |
| 20260504040710 | 44 | 95 | 0.0 | 0.0 | 0.00 | 0.00 | 0.00 | 69 | 956.5 |
| 20260504040208 | 44 | 110 | 0.0 | 0.0 | 0.00 | 0.00 | 0.00 | 71 | 956.7 |
| 20260504035703 | 44 | 110 | 0.0 | 0.0 | 0.00 | 0.00 | 0.00 | 72 | 956.4 |
| 20260504035201 | 44 | 110 | 0.0 | 0.0 | 0.00 | 0.00 | 0.00 | 74 | 956.4 |
| 20260504034658 | 44 | 110 | 0.0 | 0.0 | 0.00 | 0.00 | 0.00 | 75 | 956.7 |
| 20260504034155 | 44 | 3 | 0.0 | 0.0 | 0.00 | 0.00 | 0.00 | 68 | 956.6 |
| 20260504033653 | 43 | 4 | 0.0 | 0.0 | 0.00 | 0.00 | 0.00 | 70 | 956.4 |
| 20260504033150 | 43 | 17 | 0.0 | 0.0 | 0.00 | 0.00 | 0.00 | 70 | 956.2 |
| 20260504032647 | 43 | 38 | 0.0 | 0.0 | 0.00 | 0.00 | 0.00 | 69 | 956.0 |
| 20260504032144 | 43 | 38 | 0.0 | 0.0 | 0.00 | 0.00 | 0.00 | 70 | 956.0 |
| 20260504031641 | 43 | 38 | 0.0 | 0.0 | 0.00 | 0.00 | 0.00 | 73 | 956.1 |
| 20260504031137 | 43 | 39 | 0.0 | 0.0 | 0.00 | 0.00 | 0.00 | 72 | 956.0 |
| 20260504030634 | 42 | 39 | 0.0 | 0.0 | 0.00 | 0.00 | 0.00 | 69 | 956.0 |
| 20260504030131 | 42 | 347 | 0.0 | 0.0 | 0.00 | 0.00 | 0.00 | 69 | 956.2 |
| 20260504025628 | 42 | 348 | 0.0 | 0.0 | 0.00 | 0.00 | 0.00 | 68 | 956.5 |
| 20260504025124 | 42 | 349 | 0.0 | 0.0 | 0.00 | 0.00 | 0.00 | 69 | 956.4 |
| 20260504024622 | 42 | 76 | 0.0 | 0.0 | 0.00 | 0.00 | 0.00 | 66 | 956.2 |
| 20260504024118 | 42 | 88 | 0.0 | 0.0 | 0.00 | 0.00 | 0.00 | 66 | 956.2 |
| 20260504023615 | 42 | 89 | 0.0 | 0.0 | 0.00 | 0.00 | 0.00 | 67 | 956.4 |
| 20260504023111 | 42 | 89 | 0.0 | 0.0 | 0.00 | 0.00 | 0.00 | 69 | 956.2 |
| 20260504022607 | 42 | 90 | 0.0 | 0.0 | 0.00 | 0.00 | 0.00 | 67 | 956.2 |
| 20260504022103 | 42 | 89 | 0.0 | 0.0 | 0.00 | 0.00 | 0.00 | 69 | 956.4 |
| 20260504021601 | 42 | 89 | 0.0 | 0.0 | 0.00 | 0.00 | 0.00 | 66 | 956.2 |
| 20260504021058 | 42 | 89 | 0.0 | 0.0 | 0.00 | 0.00 | 0.00 | 67 | 956.5 |
| 20260504020555 | 42 | 48 | 0.0 | 0.0 | 0.00 | 0.00 | 0.00 | 64 | 956.1 |
| 20260504020051 | 43 | 46 | 0.0 | 0.0 | 0.00 | 0.00 | 0.00 | 61 | 956.4 |
| 20260504015548 | 43 | 48 | 0.0 | 0.0 | 0.00 | 0.00 | 0.00 | 60 | 956.4 |
| 20260504015043 | 43 | 100 | 0.0 | 0.0 | 0.00 | 0.00 | 0.00 | 60 | 956.1 |
| 20260504014540 | 43 | 100 | 0.0 | 0.0 | 0.00 | 0.00 | 0.00 | 61 | 956.1 |
| 20260504014037 | 43 | 112 | 0.0 | 0.0 | 0.00 | 0.00 | 0.00 | 61 | 956.0 |
| 20260504013535 | 44 | 112 | 0.0 | 0.0 | 0.00 | 0.00 | 0.00 | 61 | 956.0 |
| 20260504013032 | 44 | 123 | 1.7 | 1.7 | 0.00 | 0.00 | 0.00 | 60 | 955.8 |
| 20260504012529 | 45 | 132 | 0.0 | 0.0 | 0.00 | 0.00 | 0.00 | 57 | 955.8 |
| 20260504012027 | 45 | 111 | 0.0 | 0.0 | 0.00 | 0.00 | 0.00 | 54 | 955.9 |
| 20260504011523 | 46 | 111 | 0.0 | 0.0 | 0.00 | 0.00 | 0.00 | 57 | 955.9 |
| 20260504011019 | 46 | 111 | 0.0 | 0.0 | 0.00 | 0.00 | 0.00 | 54 | 956.0 |
| 20260504010515 | 46 | 113 | 0.0 | 0.0 | 0.00 | 0.00 | 0.00 | 54 | 955.7 |
| 20260504010011 | 47 | 6 | 0.0 | 0.0 | 0.00 | 0.00 | 0.00 | 54 | 955.7 |
| 20260504005508 | 47 | 348 | 0.0 | 0.0 | 0.00 | 0.00 | 0.00 | 53 | 955.8 |
| 20260504005006 | 48 | 349 | 0.0 | 0.0 | 0.00 | 0.00 | 0.00 | 49 | 955.6 |
| 20260504004503 | 48 | 349 | 0.0 | 0.0 | 0.00 | 0.00 | 0.00 | 46 | 955.6 |
| 20260504004000 | 49 | 349 | 0.0 | 0.0 | 0.00 | 0.00 | 0.00 | 45 | 955.6 |
| 20260504003456 | 49 | 348 | 0.0 | 2.6 | 0.00 | 0.00 | 0.00 | 45 | 955.5 |
| 20260504002953 | 49 | 300 | 0.0 | 0.0 | 0.00 | 0.00 | 0.00 | 45 | 955.6 |
| 20260504002450 | 50 | 300 | 0.0 | 0.0 | 0.00 | 0.00 | 0.00 | 41 | 955.4 |
| 20260504001948 | 50 | 322 | 0.0 | 0.0 | 0.00 | 0.00 | 0.00 | 40 | 955.4 |
| 20260504001445 | 50 | 319 | 0.0 | 0.0 | 0.00 | 0.00 | 0.00 | 41 | 955.3 |
| 20260504000942 | 51 | 261 | 0.9 | 0.9 | 0.00 | 0.00 | 0.00 | 39 | 955.6 |
| 20260504000439 | 51 | 348 | 0.9 | 0.9 | 0.00 | 0.00 | 0.00 | 40 | 955.5 |
| 20260503235936 | 52 | 261 | 0.0 | 1.7 | 0.00 | 0.00 | 0.00 | 37 | 955.5 |
| 20260503235433 | 52 | 314 | 0.9 | 2.6 | 0.00 | 0.00 | 0.00 | 37 | 955.5 |
| 20260503234931 | 53 | 284 | 0.0 | 0.9 | 0.00 | 0.00 | 0.00 | 37 | 955.3 |
| 20260503234428 | 53 | 289 | 0.0 | 0.0 | 0.00 | 0.00 | 0.00 | 38 | 955.4 |
| 20260503233926 | 53 | 285 | 0.0 | 0.0 | 0.00 | 0.00 | 0.00 | 38 | 955.6 |
| 20260503233422 | 53 | 328 | 1.7 | 2.6 | 0.00 | 0.00 | 0.00 | 38 | 955.7 |
| 20260503232919 | 54 | 292 | 0.9 | 2.6 | 0.00 | 0.00 | 0.00 | 35 | 955.6 |
| 20260503232416 | 54 | 295 | 0.9 | 1.7 | 0.00 | 0.00 | 0.00 | 35 | 955.5 |
| 20260503231914 | 54 | 253 | 1.7 | 3.5 | 0.00 | 0.00 | 0.00 | 33 | 955.5 |
| 20260503231411 | 55 | 249 | 3.5 | 3.5 | 0.00 | 0.00 | 0.00 | 33 | 955.7 |
| 20260503230907 | 55 | 221 | 0.0 | 0.0 | 0.00 | 0.00 | 0.00 | 35 | 955.7 |
| 20260503230403 | 55 | 311 | 1.7 | 3.5 | 0.00 | 0.00 | 0.00 | 33 | 955.4 |
| 20260503225901 | 56 | 238 | 0.0 | 2.6 | 0.00 | 0.00 | 0.00 | 34 | 955.6 |
| 20260503225357 | 58 | 334 | 0.0 | 0.0 | 0.00 | 0.00 | 0.00 | 34 | 955.7 |
| 20260503224854 | 58 | 272 | 0.9 | 0.9 | 0.00 | 0.00 | 0.00 | 32 | 955.7 |
| 20260503224351 | 57 | 239 | 0.0 | 2.6 | 0.00 | 0.00 | 0.00 | 34 | 955.7 |
| 20260503223848 | 57 | 289 | 0.9 | 3.5 | 0.00 | 0.00 | 0.00 | 32 | 955.8 |
| 20260503223346 | 57 | 267 | 1.7 | 2.6 | 0.00 | 0.00 | 0.00 | 32 | 955.8 |
| 20260503222841 | 57 | 259 | 0.9 | 1.7 | 0.00 | 0.00 | 0.00 | 33 | 955.7 |
| 20260503222340 | 57 | 263 | 2.6 | 3.5 | 0.00 | 0.00 | 0.00 | 30 | 955.8 |
| 20260503221838 | 58 | 24 | 1.7 | 2.6 | 0.00 | 0.00 | 0.00 | 30 | 955.5 |
| 20260503221337 | 58 | 216 | 0.9 | 1.7 | 0.00 | 0.00 | 0.00 | 30 | 955.7 |
| 20260503220832 | 58 | 330 | 1.7 | 2.6 | 0.00 | 0.00 | 0.00 | 30 | 955.8 |
| 20260503220329 | 58 | 245 | 1.7 | 2.6 | 0.00 | 0.00 | 0.00 | 30 | 955.8 |
| 20260503215826 | 58 | 332 | 1.7 | 2.6 | 0.00 | 0.00 | 0.00 | 29 | 955.9 |
| 20260503215323 | 60 | 292 | 0.9 | 2.6 | 0.00 | 0.00 | 0.00 | 28 | 955.6 |
| 20260503214821 | 59 | 232 | 0.0 | 2.6 | 0.00 | 0.00 | 0.00 | 28 | 955.7 |
| 20260503214318 | 58 | 212 | 0.0 | 1.7 | 0.00 | 0.00 | 0.00 | 32 | 955.9 |
| 20260503213815 | 57 | 209 | 1.7 | 2.6 | 0.00 | 0.00 | 0.00 | 37 | 956.0 |
| 20260503213313 | 59 | 275 | 1.7 | 2.6 | 0.00 | 0.00 | 0.00 | 33 | 956.0 |
| 20260503212810 | 58 | 258 | 0.0 | 0.0 | 0.00 | 0.00 | 0.00 | 35 | 956.1 |
| 20260503212308 | 57 | 17 | 0.9 | 2.6 | 0.00 | 0.00 | 0.00 | 33 | 956.0 |
| 20260503211805 | 57 | 183 | 2.6 | 3.5 | 0.00 | 0.00 | 0.00 | 33 | 955.9 |
| 20260503211302 | 57 | 232 | 4.3 | 5.2 | 0.00 | 0.00 | 0.00 | 39 | 955.9 |
| 20260503210801 | 57 | 259 | 1.7 | 2.6 | 0.00 | 0.00 | 0.00 | 30 | 955.9 |
| 20260503210259 | 58 | 226 | 1.7 | 3.5 | 0.00 | 0.00 | 0.00 | 34 | 956.1 |
| 20260503205753 | 57 | 223 | 1.7 | 1.7 | 0.00 | 0.00 | 0.00 | 34 | 956.1 |
| 20260503205250 | 57 | 174 | 1.7 | 2.6 | 0.00 | 0.00 | 0.00 | 31 | 956.2 |
| 20260503204747 | 57 | 188 | 3.5 | 3.5 | 0.00 | 0.00 | 0.00 | 34 | 956.4 |
| 20260503204245 | 57 | 72 | 0.0 | 1.7 | 0.00 | 0.00 | 0.00 | 35 | 956.5 |
| 20260503203742 | 58 | 272 | 1.7 | 5.2 | 0.00 | 0.00 | 0.00 | 30 | 956.4 |
| 20260503203239 | 58 | 265 | 3.5 | 7.0 | 0.00 | 0.00 | 0.00 | 36 | 956.4 |
| 20260503202736 | 58 | 119 | 0.9 | 2.6 | 0.00 | 0.00 | 0.00 | 28 | 956.6 |
| 20260503202234 | 57 | 213 | 0.0 | 1.7 | 0.00 | 0.00 | 0.00 | 29 | 956.8 |
| 20260503201732 | 58 | 263 | 1.7 | 3.5 | 0.00 | 0.00 | 0.00 | 29 | 956.8 |
| 20260503201229 | 57 | 236 | 0.0 | 3.5 | 0.00 | 0.00 | 0.00 | 35 | 956.7 |
| 20260503200725 | 59 | 273 | 5.2 | 7.0 | 0.00 | 0.00 | 0.00 | 33 | 956.6 |
| 20260503200222 | 58 | 191 | 0.0 | 2.6 | 0.00 | 0.00 | 0.00 | 29 | 956.9 |
| 20260503195718 | 59 | 62 | 0.0 | 1.7 | 0.00 | 0.00 | 0.00 | 30 | 957.1 |
| 20260503195215 | 58 | 228 | 0.9 | 1.7 | 0.00 | 0.00 | 0.00 | 32 | 957.1 |
| 20260503194713 | 57 | 221 | 4.3 | 5.2 | 0.00 | 0.00 | 0.00 | 36 | 957.2 |
| 20260503194209 | 57 | 145 | 2.6 | 5.2 | 0.00 | 0.00 | 0.00 | 34 | 957.2 |
| 20260503193705 | 58 | 335 | 0.0 | 1.7 | 0.00 | 0.00 | 0.00 | 29 | 957.4 |
| 20260503193201 | 57 | 274 | 0.9 | 2.6 | 0.00 | 0.00 | 0.00 | 32 | 957.4 |
| 20260503192656 | 57 | 349 | 2.6 | 5.2 | 0.00 | 0.00 | 0.00 | 37 | 957.5 |
| 20260503192152 | 57 | 5 | 1.7 | 2.6 | 0.00 | 0.00 | 0.00 | 32 | 957.5 |
| 20260503191649 | 56 | 185 | 2.6 | 5.2 | 0.00 | 0.00 | 0.00 | 32 | 957.8 |
| 20260503191146 | 57 | 224 | 3.5 | 5.2 | 0.00 | 0.00 | 0.00 | 32 | 957.7 |
| 20260503190643 | 55 | 114 | 1.7 | 3.5 | 0.00 | 0.00 | 0.00 | 31 | 957.9 |
| 20260503190140 | 57 | 214 | 0.9 | 2.6 | 0.00 | 0.00 | 0.00 | 37 | 958.0 |
| 20260503185637 | 56 | 12 | 2.6 | 3.5 | 0.00 | 0.00 | 0.00 | 32 | 957.8 |
| 20260503185132 | 54 | 169 | 0.9 | 2.6 | 0.00 | 0.00 | 0.00 | 36 | 957.9 |
| 20260503184627 | 56 | 35 | 1.7 | 2.6 | 0.00 | 0.00 | 0.00 | 34 | 957.9 |
| 20260503184124 | 55 | 263 | 1.7 | 5.2 | 0.00 | 0.00 | 0.00 | 36 | 958.0 |
| 20260503183620 | 55 | 228 | 3.5 | 5.2 | 0.00 | 0.00 | 0.00 | 31 | 958.0 |
| 20260503183118 | 55 | 346 | 1.7 | 2.6 | 0.00 | 0.00 | 0.00 | 36 | 958.2 |
| 20260503182616 | 55 | 346 | 1.7 | 2.6 | 0.00 | 0.00 | 0.00 | 35 | 958.2 |
| 20260503182114 | 53 | 136 | 1.7 | 6.1 | 0.00 | 0.00 | 0.00 | 31 | 958.0 |
| 20260503181610 | 55 | 9 | 3.5 | 3.5 | 0.00 | 0.00 | 0.00 | 31 | 958.0 |
| 20260503181107 | 54 | 237 | 1.7 | 3.5 | 0.00 | 0.00 | 0.00 | 35 | 958.2 |
| 20260503180604 | 53 | 150 | 0.9 | 1.7 | 0.00 | 0.00 | 0.00 | 32 | 957.9 |
| 20260503175559 | 54 | 350 | 0.0 | 2.6 | 0.00 | 0.00 | 0.00 | 38 | 958.4 |
| 20260503175056 | 54 | 249 | 0.9 | 5.2 | 0.00 | 0.00 | 0.00 | 31 | 958.6 |
| 20260503174553 | 53 | 346 | 4.3 | 5.2 | 0.00 | 0.00 | 0.00 | 32 | 958.8 |
| 20260503174049 | 53 | 236 | 1.7 | 2.6 | 0.00 | 0.00 | 0.00 | 36 | 958.4 |
| 20260503173544 | 53 | 209 | 1.7 | 5.2 | 0.00 | 0.00 | 0.00 | 33 | 958.5 |
| 20260503173041 | 53 | 252 | 1.7 | 7.0 | 0.00 | 0.00 | 0.00 | 39 | 958.8 |
| 20260503172539 | 53 | 254 | 2.6 | 2.6 | 0.00 | 0.00 | 0.00 | 39 | 958.9 |
| 20260503172035 | 52 | 235 | 0.9 | 2.6 | 0.00 | 0.00 | 0.00 | 40 | 958.6 |
| 20260503171532 | 53 | 283 | 0.9 | 2.6 | 0.00 | 0.00 | 0.00 | 41 | 958.8 |
| 20260503171029 | 52 | 288 | 0.9 | 1.7 | 0.00 | 0.00 | 0.00 | 36 | 958.7 |
| 20260503170525 | 51 | 281 | 0.0 | 3.5 | 0.00 | 0.00 | 0.00 | 42 | 958.8 |
| 20260503150913 | 46 | 240 | 4.3 | 6.1 | 0.00 | 0.00 | 0.00 | 41 | 959.7 |
| 20260503150409 | 46 | 219 | 1.7 | 3.5 | 0.00 | 0.00 | 0.00 | 45 | 959.8 |
| 20260503131302 | 41 | 345 | 1.7 | 2.6 | 0.00 | 0.00 | 0.00 | 63 | 959.6 |
| 20260503130759 | 40 | 271 | 1.7 | 2.6 | 0.00 | 0.00 | 0.00 | 65 | 959.4 |
| 20260503130256 | 40 | 280 | 0.9 | 5.2 | 0.00 | 0.00 | 0.00 | 63 | 959.4 |
| 20260503110650 | 28 | 250 | 0.0 | 0.0 | 0.00 | 0.00 | 0.00 | 96 | 958.2 |
| 20260503110147 | 28 | 250 | 0.0 | 0.0 | 0.00 | 0.00 | 0.00 | 96 | 958.4 |
| 20260503100114 | 28 | 250 | 0.0 | 0.0 | 0.00 | 0.00 | 0.00 | 95 | 957.6 |
| 20260503081503 | 32 | 231 | 0.0 | 0.0 | 0.00 | 0.00 | 0.00 | 87 | 956.8 |
| 20260503081000 | 32 | 231 | 0.0 | 0.0 | 0.00 | 0.00 | 0.00 | 87 | 956.7 |
| 20260503080457 | 32 | 263 | 0.0 | 0.0 | 0.00 | 0.00 | 0.00 | 86 | 956.6 |
| 20260503072933 | 34 | 233 | 0.0 | 1.7 | 0.00 | 0.00 | 0.00 | 82 | 956.5 |
| 20260503072430 | 34 | 261 | 0.0 | 0.0 | 0.00 | 0.00 | 0.00 | 81 | 956.4 |
| 20260503071927 | 34 | 288 | 0.0 | 0.0 | 0.00 | 0.00 | 0.00 | 81 | 956.4 |
| 20260503071424 | 35 | 224 | 0.0 | 0.0 | 0.00 | 0.00 | 0.00 | 80 | 956.2 |
| 20260503070920 | 35 | 219 | 0.0 | 0.0 | 0.00 | 0.00 | 0.00 | 79 | 956.4 |
| 20260503070418 | 35 | 260 | 0.0 | 0.9 | 0.00 | 0.00 | 0.00 | 79 | 956.4 |